World > North America > United States > Wisconsin   City of Fond du Lac, WI

Fond du Lac, Wisconsin Regional Weather

Lat: 43.78N, Lon: 88.45W
Wx Zone: WIZ051Web Search
Fond du Lac Weather Warning NWS WEATHER ALERT FOR THE FOND DU LAC, WI AREA - Issued: 842 PM CST Thu Jan 21 2021 Fond du Lac Weather Warning  

Helpful Tip: Abbreviated, 7 Day, 14 Day Forecasts. There is a weather forecast for every taste.

Feedback
Fond Du Lac Weather Map
UTC Time: 1/22/2021, 03:41
Your Time:

Fond du Lac, WI Regional Weather

Expires:202101220400;;289351
ASUS43 KMKX 220320
RWRWI 

WISCONSIN REGIONAL WEATHER ROUNDUP
NATIONAL WEATHER SERVICE MILWAUKEE/SULLIVAN WI
900 PM CST THU JAN 21 2021

NOTE: "FAIR" INDICATES FEW OR NO CLOUDS BELOW 12,000 FEET WITH NO
SIGNIFICANT WEATHER AND/OR OBSTRUCTIONS TO VISIBILITY.


WIZ051-052-058>065-066-070>072-220400-
SOUTHEAST WISCONSIN
  
CITY           SKY/WX    TMP DP  RH WIND       PRES   REMARKS
MILWAUKEE      CLOUDY    35  19  52 W15G26    29.74R WCI  25          
WAUKESHA       CLOUDY    30  19  64 W18       29.75R WCI  18          
MILWAUKEE/TIMM CLOUDY    32  19  59 W13       29.75R WCI  22          
RACINE         CLOUDY    34  20  56 W10G22    29.76R WCI  26          
KENOSHA        CLOUDY    34  21  59 W14G23    29.75R WCI  25          
FOND DU LAC    CLOUDY    28  13  53 NW16G26   29.75R WCI  16          
SHEBOYGAN      CLOUDY    31  16  54 NW16G29   29.71R WCI  20          
WEST BEND      MOCLDY    32  18  55 NW20G29   29.72R WCI  20          
JUNEAU         FAIR      27  13  56 NW13G24   29.77R WCI  16          
$$


SKY/WX - Weather  TMP - Temperature  DP - Dew Point  RH - Relative Humidity
WIND - Wind Direction/Speed PRES - Barometric Pressure VSB - Visibility
WCI - Wind Chill Index E13G22 Wind - East Wind 13 mph/Gusts of 22 mph